Regional Weather Roundup
Issued by NWS State College, PA

Home | Current Version | Previous Version | Text Only | Print | Product List | Glossary Off
Versions: 1 2 3 4 5 6 7 8 9 10 11 12 13 14 15 16 17 18 19 20 21 22 23 24 25 26 27 28 29 30 31 32 33 34 35 36 37 38 39 40 41 42 43 44 45 46 47 48 49 50

000
ASUS41 KCTP 281210
RWRCTP

REGIONAL WEATHER ROUNDUP
NATIONAL WEATHER SERVICE STATE COLLEGE PA
800 AM EDT SAT MAR 28 2015

Note: "fair" indicates few or no clouds below 12,000 feet with no
significant weather and/or obstructions to visibility.

* = STATION THAT DOES NOT REPORT PRECIPITATION /E.G. RAIN...SNOW...ETC/
    THUNDER OR FOG.

PAZ002>004-007>009-013>016-020>023-029>032-281300-
WESTERN PENNSYLVANIA

CITY           SKY/WX    TMP DP  RH WIND       PRES   REMARKS
ERIE           CLOUDY    17   8  67 NE13      30.13R WCI   4
MEADVILLE      CLOUDY    12   7  80 NW5       30.05R HAZE    WCI   4
FRANKLIN*      CLOUDY    12   7  79 NW5       30.04R WCI   4
NEW CASTLE     FLURRIES  14   8  77 N7        30.11R WCI   4
BEAVER COUNTY  CLOUDY    14   9  79 NW7       30.07R WCI   4
BUTLER*        CLOUDY    14   7  73 NW6       30.07R WCI   5
PITTSBURGH INT PTCLDY    15   5  64 NW12      30.07R WCI   2
PITTSBURGH     MOCLDY    14   3  61 VRB6      30.06R WCI   5
INDIANA*       CLOUDY    16  10  79 NW7       30.05R HAZE    WCI   6
LATROBE        CLOUDY    16   7  67 NW13G18   30.07R WCI   2
WASHINGTON CO* CLOUDY    16   5  62 NW9       30.09R WCI   4
$$

PAZ004>006-010>012-017>019-024>028-033>037-041-042-045-046-049>053-281300-
CENTRAL PENNSYLVANIA

CITY           SKY/WX    TMP DP  RH WIND       PRES   REMARKS
BRADFORD       LGT SNOW  12   7  80 NW9       29.92R WCI   0
DUBOIS         MOCLDY    15   6  67 NW9       29.95R WCI   3
CLEARFIELD     CLOUDY    17   9  70 NW8       29.96R WCI   7
JOHNSTOWN      LGT SNOW  11   4  73 NW15      29.91R WCI  -5
ALTOONA        MOCLDY    16   7  67 W9        29.95R WCI   4
STATE COLLEGE  CLOUDY    19  12  73 NW8       29.94R HAZE    WCI   9
WILLIAMSPORT   LGT SNOW  24  19  81 NW7       29.96R VSB 1
SELINSGROVE    CLOUDY    26  15  63 NW14G24   29.95R WCI  14
FT INDIANTOWN  MIX PCPN  28  19  69 VRB7      29.90R
CAPITAL CITY   FLURRIES  27  19  72 NW14      29.94R
HARRISBURG     LGT SNOW  28  21  75 NW15      29.93R
YORK           CLOUDY    27  19  72 NW12G24   29.92R
$$

PAZ038>040-043-044-047-048-054-055-060>062-067>071-281300-
EASTERN PENNSYLVANIA

CITY           SKY/WX    TMP DP  RH WIND       PRES   REMARKS
SCRANTON       CLOUDY    26  15  63 N12       29.87R
MOUNT POCONO   PTSUNNY   23  14  68 NW13G28   29.76R WCI  11
ALLENTOWN      PTSUNNY   32  18  56 NW12      29.86R
QUAKERTOWN*    CLOUDY    32  18  55 N10G17    29.86R
READING        CLOUDY    31  19  61 NW13      29.88R
LANCASTER      LGT SNOW  29  23  78 NW13      29.89R
COATESVILLE    PTSUNNY   32  19  59 N9        29.86R
POTTSTOWN      CLOUDY    31  18  58 N12G18    29.87R
BLUE BELL      MOSUNNY   34  21  60 NW7       29.85R
DOYLESTOWN     CLOUDY    30  18  60 NW12G25   29.82R
WILLOW GROVE   NOT AVBL
NORTH PHILA    PTSUNNY   34  17  50 NW16G24   29.85R
PHILADELPHIA   PTSUNNY   34  18  52 N17G28    29.85R
$$


USA.gov is the U.S. government's official web portal to all federal, state and local government web resources and services.